Probability
0 0 0 0 0 0 0 0 0 0 0 0 0 0 0 0 0 0 0 0 0 0 0 0 0 0 0 0 0 0 0 0 0 0 0 0 0 0 0 0 0 0 0 0 0 0 0 0 0
0 0 0 0 0 0 0 0 0 0 0 0 0 0 0 0 0 0 0 0 0 0 0 0 0 0 0 0 0 0 0 0 0 0 0 0 0 0 0 0 0 0 0 0 0 0 0 0 0
0 0 0 0 0 0 0 0 0 0 0 0 0 0 0 0 0 0 0 0 0 0 0 0 0 0 0 0 0 0 0 0 0 0 0 0 0 0 0 0 0 0 0 0 0 0 0 0 0
0 0 0 0 0 0 0 0 0 0 0 0 0 0 0 0 0 0 0 0 0 0 0 0 0 0 0 0 0 0 0 0 0 0 0 0 0 0 0 0 0 0 0 0 0 0 0 0 0
0 0 0 0 0 0 0 0 0 0 0 0 0 0 0 0 0 0 0 0 0 0 0 0 0 0 0 0 0 0 0 0 0 0 0 0 0 0 0 0 0 0 0 0 0 0 0 0 0
0 0 0 0 0 0 0 0 0 0 0 0 0 0 0 0 0 0 0 0 0 0 0 0 0 0 0 0 0 0 0 0 0 0 0 0 0 0 0 0 0 0 0 0 0 0 0 0 0
0 0 0 0 0 0 0 0 0 0 0 0 0 0 0 0 0 0 0 0 0 0 0 0 0 0 0 0 0 0 0 0 0 0 0 0 0 0 0 0 0 0 0 0 0 0 0 0 0
0 0 0 0 0 0 0 0 0 0 0 0 0 0 0 0 0 0 0 0 0 0 0 0 0 0 0 0 0 0 0 0 0 0 0 0 0 0 0 0 0 0 0 0 0 0 0 0 0
0 0 0 0 0 0 0 0 0 0 0 0 0 0 0 0 0 0 0 0 0 0 0 0 0 0 0 0 0 0 0 0 0 0 0 0 0 0 0 0 0 0 0 0 0 0 0 0 0
0 0 0 0 0 0 0 0 0 0 0 0 0 0 0 0 0 0 0 0 0 0 0 0 0 0 0 0 0 0 0 0 0 0 0 0 0 0 0 0 0 0 0 0 0 0 0 0 0
0 0 0 0 0 0 0 0 0 0 0 0 0 0 0 0 0 0 0 0 0 0 0 0 0 0 0 0 0 0 0 0 0 0 0 0 0 0 0 0 0 0 0 0 0 0 0 0 0
0 0 0 0 0 0 0 0 0 0 0 0 0 0 0 0 0 0 0 0 0 0 0 0 0 0 0 0 0 0 0 0 0 0 0 0 0 0 0 0 0 0 0 0 0 0 0 0 0
0 0 0 0 0 0 0 0 0 0 0 0 0 0 0 0 0 0 0 0 0 0 0 0 0 0 0 0 0 0 0 0 0 0 0 0 0 0 0 0 0 0 0 0 0 0 0 0 0
0 0 0 0 0 0 0 0 0 0 0 0 0 0 0 0 0 0 0 0 0 0 0 0 0 0 0 0 0 0 0 0 0 0 0 0 0 0 0 0 0 0 0 0 0 0 0 0 0
0 0 0 0 0 0 0 0 0 0 0 0 0 0 0 0 0 0 0 0 0 0 0 0 1 1 1 0 0 0 0 0 0 0 0 0 0 0 0 0 0 0 0 0 0 0 0 0 0
0 0 0 0 0 0 0 0 0 0 0 0 0 0 0 0 0 0 0 0 0 0 0 1 2 3 3 2 0 0 0 0 0 0 0 0 0 0 0 0 0 0 0 0 0 0 0 0 0
0 0 0 0 0 0 0 0 0 0 0 0 0 0 0 0 0 0 0 0 0 0 0 1 3 5 6 5 2 1 0 0 0 0 0 0 0 0 0 0 0 0 0 0 0 0 0 0 0
0 0 0 0 0 0 0 0 0 0 0 0 0 0 0 0 0 1 1 1 1 1 0 1 5 11 16 17 13 8 3 1 1 1 0 0 0 0 0 0 0 0 0 0 0 0 0 0 0
0 0 0 0 0 0 0 0 0 0 0 0 0 0 0 0 1 2 4 5 5 4 3 3 10 22 36 42 39 29 18 10 7 4 2 0 0 0 0 0 0 0 0 0 0 0 0 0 0
0 0 0 0 0 0 0 0 0 0 0 0 0 0 0 1 2 6 13 18 17 14 11 9 16 34 56 69 68 60 48 37 26 16 8 3 0 0 0 0 0 0 0 0 0 1 1 1 0
0 0 0 0 0 0 0 0 0 0 0 0 0 0 0 1 4 13 27 38 38 32 24 20 25 45 69 84 86 82 77 69 55 39 23 9 2 2 2 1 2 1 1 1 1 1 2 2 1
0 0 0 0 0 0 0 0 0 0 0 0 0 0 0 0 2 12 29 46 52 48 42 38 44 61 78 87 87 84 80 76 69 58 38 16 5 3 3 2 2 3 3 3 2 1 3 4 4
0 0 0 0 0 0 0 0 0 0 0 0 0 0 0 0 1 6 18 34 47 54 56 58 65 76 83 83 76 66 60 58 60 56 42 23 10 5 3 2 1 2 3 3 2 1 2 5 6
0 0 0 0 0 0 0 0 0 0 0 0 0 0 0 0 0 2 8 18 29 42 55 65 72 75 75 68 57 45 38 40 45 44 35 23 12 6 3 1 0 1 1 1 1 0 1 3 4
0 0 0 0 0 0 0 0 0 0 0 0 0 0 0 0 1 2 4 8 13 22 36 48 54 54 50 44 36 26 24 28 32 31 25 17 11 6 2 0 0 0 0 0 0 0 0 1 1
0 0 0 0 0 0 0 0 0 0 0 0 0 0 0 0 1 2 2 3 4 8 16 24 28 28 25 22 19 17 18 21 23 21 15 10 7 4 1 0 0 0 0 0 0 0 0 0 0
0 0 0 0 0 0 0 0 0 0 0 0 0 0 0 0 0 1 1 1 1 3 5 8 10 11 11 9 9 12 12 13 14 12 7 5 3 2 0 0 0 0 0 0 0 0 0 0 0
0 0 0 0 0 0 0 0 0 0 0 0 0 0 0 0 0 0 0 0 1 1 1 1 2 3 4 5 5 6 6 5 6 4 2 1 1 0 0 0 0 0 0 0 0 0 0 0 0
0 0 0 0 0 0 0 0 0 0 0 0 0 0 0 0 0 0 0 0 0 0 0 0 0 0 1 3 2 2 1 1 1 0 0 0 0 0 0 0 0 0 0 0 0 0 0 0 0
0 0 0 0 0 0 0 0 0 0 0 0 0 0 0 0 0 0 0 0 0 0 0 0 0 0 1 1 1 1 1 0 0 0 0 0 0 0 0 0 0 0 0 0 0 0 0 0 0
Wind_Speed
5 4 4 4 3 5 10 7 5 5 5 5 4 3 4 4 4 4 6 13 14 15 15 16 14 14 14 13 13 12 12 11 11 11 10 9 9 8 8 7 7 7 7 7 7 7 7 7 7
2 2 4 4 2 8 9 5 6 6 6 5 4 2 3 5 6 7 9 12 15 15 14 14 15 13 13 13 13 12 12 11 11 11 10 9 8 8 7 7 7 7 7 7 6 6 7 7 6
2 3 3 1 5 7 8 5 5 6 4 1 2 3 4 5 5 7 10 14 15 14 13 14 14 13 13 13 12 12 12 12 11 11 10 9 8 7 7 7 7 7 7 7 7 7 7 7 6
3 3 2 2 8 6 3 3 3 6 3 1 1 4 5 5 4 8 14 15 15 13 13 14 13 13 12 12 12 12 12 12 11 11 10 9 8 7 7 7 7 8 8 8 8 7 7 7 6
3 3 2 5 6 4 2 1 2 3 2 2 1 4 6 5 7 12 14 14 14 14 12 14 13 13 12 12 12 12 12 12 12 11 10 9 8 7 7 7 7 8 8 8 8 8 8 7 6
2 2 2 4 5 3 3 1 3 2 2 2 1 3 6 7 8 12 13 12 13 13 12 13 14 12 12 12 12 12 12 12 12 11 10 9 8 7 6 7 7 7 7 8 7 7 7 7 6
3 1 2 4 4 4 3 1 2 1 1 2 0 3 7 8 9 11 11 11 11 12 12 11 14 13 13 12 12 12 13 12 12 11 11 9 8 7 6 6 6 6 6 6 6 6 6 5 5
3 2 4 4 4 3 2 1 0 2 2 3 2 1 5 11 11 11 10 10 10 12 12 11 11 12 13 13 13 12 12 12 12 11 11 10 8 7 6 7 6 6 6 6 6 5 5 5 5
4 4 4 3 2 3 1 1 2 1 3 4 2 3 6 14 14 12 11 10 11 11 11 11 11 10 10 11 12 12 12 11 11 11 11 10 9 9 8 6 6 5 6 6 5 5 4 4 5
3 3 1 2 1 1 1 1 1 4 4 4 5 5 9 14 14 14 13 13 13 13 12 10 10 10 10 8 9 9 9 10 10 9 11 9 6 4 4 10 5 5 6 6 5 4 6 7 6
2 2 2 2 2 2 1 1 1 3 3 1 2 7 13 15 14 14 13 12 12 12 12 11 11 10 9 7 7 6 5 7 8 9 10 7 6 5 5 6 8 7 8 7 7 8 4 4 3
1 1 1 2 2 2 2 1 1 3 3 5 5 5 14 16 16 14 13 12 11 12 12 12 11 11 10 9 7 7 6 6 6 8 10 7 5 5 5 4 5 5 4 3 4 2 4 4 5
2 0 1 3 3 4 4 4 3 2 6 7 5 6 13 15 14 13 12 12 12 12 12 12 12 12 11 9 6 7 7 7 7 7 8 8 6 6 6 5 4 5 5 5 4 4 4 3 2
2 3 3 3 3 2 4 3 3 4 7 6 3 3 9 12 13 12 13 12 12 13 13 12 13 12 11 9 8 7 7 6 7 7 8 9 7 6 6 6 6 5 5 4 4 4 3 3 2
3 5 5 3 3 1 5 4 3 7 7 6 5 3 4 7 10 12 11 12 12 12 13 13 12 13 13 11 10 7 7 8 7 7 9 10 8 7 7 6 6 6 6 6 4 4 3 3 3
5 6 6 2 1 1 6 4 7 8 8 8 8 6 5 5 8 10 11 11 11 11 12 12 11 13 13 11 10 7 8 8 7 7 7 10 10 9 6 5 6 6 5 5 4 4 4 4 4
5 7 6 2 1 2 4 2 6 8 8 8 8 8 7 6 7 8 10 11 11 11 12 13 14 14 13 12 10 8 8 8 7 7 7 9 10 9 7 5 5 7 6 5 5 4 4 4 4
5 6 6 4 1 4 5 2 4 7 8 8 8 9 9 9 9 9 9 11 12 12 14 14 14 14 13 11 10 8 8 7 7 7 7 9 8 9 7 5 7 7 6 5 5 5 4 3 4
6 7 8 5 3 5 5 3 2 5 7 9 10 10 11 11 10 9 9 9 11 13 15 15 15 15 12 10 10 9 9 7 7 7 8 9 9 9 7 5 6 6 6 7 7 6 6 5 5
5 7 7 4 2 6 6 5 1 4 7 9 11 12 13 14 13 12 10 8 9 12 14 16 16 15 14 10 10 8 8 7 6 6 7 9 10 9 8 8 6 7 6 8 8 7 5 5 6
4 6 8 9 7 7 8 8 6 4 4 8 10 11 13 14 15 15 13 11 9 10 12 12 15 15 14 11 7 6 6 4 4 5 5 8 9 9 9 9 7 8 8 8 9 9 9 7 7
6 7 9 10 11 9 7 10 5 1 2 9 12 13 14 14 14 14 14 13 11 9 8 10 11 13 12 11 9 9 5 4 3 2 3 5 7 7 8 8 8 8 7 8 8 10 9 9 8
9 11 12 12 13 14 11 11 3 3 6 11 14 14 14 14 14 14 13 12 11 9 5 4 6 9 11 11 11 9 5 4 2 1 1 3 4 6 7 7 7 7 6 8 8 8 9 8 9
11 12 11 10 10 13 11 11 1 6 10 13 14 15 14 14 14 13 12 10 8 7 5 3 6 9 10 11 11 11 9 6 3 0 1 2 3 4 6 6 6 6 6 6 7 7 9 9 9
12 11 7 6 7 7 3 4 6 8 10 12 14 15 14 13 13 12 11 9 8 8 6 6 8 9 10 11 11 11 10 7 3 1 1 3 3 3 5 6 6 5 5 5 6 7 7 9 9
10 9 7 7 7 5 3 1 7 9 11 13 14 14 14 13 12 11 10 8 7 7 7 8 9 10 9 9 9 9 8 5 2 1 3 4 4 4 5 6 5 5 4 5 5 5 6 7 8
10 8 7 8 9 8 3 3 3 13 16 17 17 16 15 14 12 11 9 7 7 7 8 8 10 10 9 9 8 6 5 4 3 3 5 4 4 3 5 5 5 5 4 4 5 4 5 6 6
9 8 6 5 6 5 1 4 8 17 19 18 18 17 15 14 12 11 9 8 7 7 8 8 8 8 7 6 5 4 3 3 3 4 6 6 5 4 5 5 6 6 5 5 4 4 3 5 5
10 8 7 5 4 5 3 4 9 13 14 15 15 15 14 13 12 10 8 8 7 7 7 7 6 5 4 3 2 2 2 3 4 5 5 5 5 5 5 5 5 5 5 5 4 4 4 5 5
7 8 6 4 4 3 2 3 8 11 12 13 14 14 14 14 12 11 10 10 9 9 8 7 5 4 2 0 1 2 2 4 5 5 5 5 5 5 5 5 5 4 4 4 4 4 4 4 5
Wind_Direction
228 186 194 223 212 93 79 81 83 90 79 76 73 56 37 24 350 42 111 154 147 147 146 150 152 151 152 152 150 148 146 145 142 138 132 128 125 121 117 113 109 106 105 104 101 103 103 101 103
283 183 229 240 119 93 85 86 85 74 97 105 89 63 54 65 49 94 136 150 152 149 150 150 149 152 153 155 155 154 152 149 146 141 136 132 128 124 120 114 108 104 102 100 100 100 98 97 97
203 233 264 165 73 72 84 81 86 105 112 109 88 51 31 56 95 119 138 152 155 151 151 142 152 152 153 156 158 157 155 153 149 145 140 136 133 129 124 116 108 102 96 93 94 95 93 90 86
241 230 232 117 90 71 50 75 120 139 141 90 84 90 78 67 103 120 139 155 155 155 153 146 157 155 155 157 159 159 158 157 154 150 146 142 137 134 129 121 111 102 94 87 85 87 86 78 73
257 267 153 115 95 80 53 16 172 171 108 87 31 75 94 96 109 130 147 156 160 160 158 152 160 160 160 160 161 162 163 161 159 156 152 148 143 138 135 127 116 107 99 90 82 80 76 68 66
256 252 159 119 104 102 97 141 194 213 109 131 134 93 93 123 141 146 152 163 165 164 163 156 161 166 166 166 165 166 166 165 164 161 157 152 147 141 138 131 123 114 103 94 86 80 74 65 65
289 240 146 132 135 128 79 8 214 197 156 133 134 95 120 144 148 154 157 164 166 167 169 167 166 171 173 172 171 171 169 170 169 166 162 157 151 147 144 138 132 124 115 107 98 89 80 72 70
309 226 165 164 167 121 77 158 273 259 96 107 208 39 132 150 153 157 159 163 171 175 176 178 177 174 174 175 176 176 174 174 174 172 167 160 157 157 153 165 139 136 129 119 111 105 98 90 84
278 237 196 164 177 116 76 169 127 185 150 163 182 34 102 142 156 162 165 171 177 183 184 184 182 180 179 176 169 179 179 178 178 177 171 176 182 169 174 135 132 147 137 128 123 117 121 142 127
269 247 119 77 23 49 32 6 155 196 195 184 164 132 140 155 170 175 179 181 181 186 189 188 191 183 183 180 169 185 181 180 190 184 177 192 179 164 155 120 156 153 143 142 130 139 177 216 163
299 330 62 83 13 329 327 19 239 247 237 256 217 173 168 176 184 188 190 188 186 187 188 193 194 191 187 183 180 182 181 183 192 186 179 191 174 167 177 164 168 170 180 171 155 194 180 174 132
294 40 348 2 8 309 314 321 264 264 333 344 307 209 184 190 193 196 195 190 186 190 191 194 197 192 194 191 186 188 186 185 186 191 185 182 186 188 174 188 173 173 181 172 193 186 157 162 164
259 293 336 326 308 294 285 273 283 301 337 320 302 212 200 202 201 200 200 193 192 192 195 196 198 200 196 195 194 196 193 189 188 190 193 187 187 191 176 186 179 193 178 179 193 203 161 171 135
327 298 290 296 295 290 287 274 255 21 346 342 332 230 214 212 211 205 203 202 201 197 197 193 198 200 200 194 198 202 196 190 197 188 201 193 189 193 183 190 183 189 188 188 200 197 187 198 175
279 270 252 247 275 313 287 241 58 19 357 2 353 328 269 238 226 224 217 215 212 206 202 195 198 198 200 202 201 199 200 193 195 193 204 196 191 193 192 192 186 186 190 194 202 187 210 201 187
250 249 246 165 284 295 272 252 60 16 10 15 8 360 329 283 257 246 239 232 225 218 213 199 197 201 199 200 201 199 201 198 197 194 205 204 197 198 192 193 193 193 192 198 191 209 201 192 201
231 255 265 219 100 304 276 290 44 21 20 19 14 4 351 331 304 281 264 252 242 231 221 210 203 203 199 196 199 202 200 198 202 199 200 210 208 203 194 199 198 191 198 205 204 207 214 201 199
286 280 273 274 11 299 275 293 38 38 33 26 17 8 1 351 340 322 301 280 259 240 229 219 207 206 199 195 197 192 201 199 203 204 204 213 216 215 208 200 211 201 201 208 215 202 214 220 206
305 288 284 300 344 294 278 284 39 48 38 26 16 8 2 354 344 335 315 291 268 249 234 223 212 204 198 192 194 189 193 196 200 207 210 212 219 219 220 219 214 208 211 212 215 209 206 214 214
296 288 291 293 318 291 279 272 138 76 49 30 15 6 0 352 347 347 333 310 277 256 243 230 216 206 197 192 192 191 186 193 194 202 211 218 223 223 226 224 221 216 218 218 217 214 214 210 211
314 320 316 306 299 256 269 249 187 135 72 33 17 5 0 354 346 344 340 332 309 273 252 238 223 206 194 181 174 163 156 155 170 199 212 221 227 227 227 229 225 222 219 218 216 215 218 217 217
319 348 313 295 283 270 255 272 200 142 46 18 7 1 357 352 346 342 340 339 332 310 272 245 222 204 182 167 163 160 161 155 169 180 204 217 224 228 227 229 226 224 222 222 220 220 223 221 218
339 322 299 285 275 272 251 258 220 58 6 1 357 354 352 350 346 343 344 342 341 335 317 250 201 173 159 157 152 135 116 98 66 53 224 225 222 226 227 228 227 227 225 226 225 223 223 223 224
330 306 280 256 257 255 253 250 207 32 358 347 348 349 348 349 348 346 349 351 357 3 17 72 122 128 137 138 134 127 121 110 100 52 244 229 218 220 223 224 223 225 226 227 227 227 225 232 233
347 331 295 259 237 255 293 260 71 30 4 351 347 345 346 348 351 350 352 357 8 20 39 77 102 111 122 127 127 123 119 118 127 188 245 241 225 216 209 210 219 220 224 228 227 229 230 231 236
346 338 321 302 294 306 293 213 86 24 7 359 353 347 346 350 354 354 356 6 15 29 54 78 91 97 105 114 116 114 116 122 132 202 242 236 227 213 197 197 206 206 209 215 217 235 231 237 236
344 346 329 294 285 276 248 96 81 8 2 359 354 350 349 349 355 359 5 16 28 42 59 79 91 96 100 101 101 105 122 142 169 211 230 229 218 201 192 187 186 185 189 204 205 224 226 235 238
4 335 313 299 302 286 310 48 4 352 348 348 349 348 348 349 359 5 10 21 36 52 62 66 80 92 96 100 112 122 152 189 205 223 224 214 203 189 190 191 181 175 177 186 197 217 221 231 232
360 356 336 307 304 309 330 49 11 343 342 344 347 351 357 357 6 8 18 24 35 47 52 55 59 67 81 95 110 136 176 207 217 220 215 202 190 187 184 186 191 177 178 178 183 214 207 225 226
16 357 337 330 345 333 329 41 2 348 353 358 358 2 5 8 15 19 28 30 36 34 29 26 24 27 30 63 154 170 184 204 208 205 202 193 185 186 189 177 190 177 184 191 200 207 216 228 239